Year,Month,Day,Hour,Minute,Value (Times are PST for temperature in C)
2011,03,28,00,00,6.30
2011,03,28,00,01,6.20
2011,03,28,00,02,6.20
2011,03,28,00,03,6.20
2011,03,28,00,04,6.20
2011,03,28,00,05,6.20
2011,03,28,00,06,6.20
2011,03,28,00,07,6.10
2011,03,28,00,08,6.10
2011,03,28,00,09,6.10
2011,03,28,00,10,6.00
2011,03,28,00,11,6.00
2011,03,28,00,12,6.00
2011,03,28,00,13,5.90
2011,03,28,00,14,5.90
2011,03,28,00,15,5.90
2011,03,28,00,16,5.80
2011,03,28,00,17,5.80
2011,03,28,00,18,5.80
2011,03,28,00,19,5.70
2011,03,28,00,20,5.70
2011,03,28,00,21,5.70
2011,03,28,00,22,5.70
2011,03,28,00,23,5.60
2011,03,28,00,24,5.50
2011,03,28,00,25,5.50
2011,03,28,00,26,5.50
2011,03,28,00,27,5.40
2011,03,28,00,28,5.40
2011,03,28,00,29,5.30
2011,03,28,00,30,5.30
2011,03,28,00,31,5.30
2011,03,28,00,32,5.30
2011,03,28,00,33,5.30
2011,03,28,00,34,5.30
2011,03,28,00,35,5.20
2011,03,28,00,36,5.20
2011,03,28,00,37,5.20
2011,03,28,00,38,5.10
2011,03,28,00,39,5.10
2011,03,28,00,40,5.10
2011,03,28,00,41,5.10
2011,03,28,00,42,5.10
2011,03,28,00,43,5.10
2011,03,28,00,44,5.00
2011,03,28,00,45,4.90
2011,03,28,00,46,4.90
2011,03,28,00,47,4.90
2011,03,28,00,48,4.90
2011,03,28,00,49,4.90
2011,03,28,00,50,4.80
2011,03,28,00,51,4.80
2011,03,28,00,52,4.80
2011,03,28,00,53,4.70
2011,03,28,00,54,4.70
2011,03,28,00,55,4.70
2011,03,28,00,56,4.70
2011,03,28,00,57,4.60
2011,03,28,00,58,4.60
2011,03,28,00,59,4.60
2011,03,28,01,00,4.60
2011,03,28,01,01,4.60
2011,03,28,01,02,4.60
2011,03,28,01,03,4.50
2011,03,28,01,04,4.50
2011,03,28,01,05,4.50
2011,03,28,01,06,4.50
2011,03,28,01,07,4.40
2011,03,28,01,08,4.40
2011,03,28,01,09,4.40
2011,03,28,01,10,4.40
2011,03,28,01,11,4.40
2011,03,28,01,12,4.30
2011,03,28,01,13,4.30
2011,03,28,01,14,4.30
2011,03,28,01,15,4.30
2011,03,28,01,16,4.30
2011,03,28,01,17,4.20
2011,03,28,01,18,4.20
2011,03,28,01,19,4.20
2011,03,28,01,20,4.20
2011,03,28,01,21,4.20
2011,03,28,01,22,4.20
2011,03,28,01,23,4.20
2011,03,28,01,24,4.10
2011,03,28,01,25,4.10
2011,03,28,01,26,4.10
2011,03,28,01,27,4.00
2011,03,28,01,28,4.00
2011,03,28,01,29,4.00
2011,03,28,01,30,3.90
2011,03,28,01,31,3.90
2011,03,28,01,32,3.90
2011,03,28,01,33,3.80
2011,03,28,01,34,3.80
2011,03,28,01,35,3.80
2011,03,28,01,36,3.80
2011,03,28,01,37,3.70
2011,03,28,01,38,3.60
2011,03,28,01,39,3.60
2011,03,28,01,40,3.50
2011,03,28,01,41,3.50
2011,03,28,01,42,3.40
2011,03,28,01,43,3.40
2011,03,28,01,44,3.40
2011,03,28,01,45,3.40
2011,03,28,01,46,3.40
2011,03,28,01,47,3.40
2011,03,28,01,48,3.30
2011,03,28,01,49,3.30
2011,03,28,01,50,3.30
2011,03,28,01,51,3.30
2011,03,28,01,52,3.30
2011,03,28,01,53,3.30
2011,03,28,01,54,3.20
2011,03,28,01,55,3.20
2011,03,28,01,56,3.20
2011,03,28,01,57,3.10
2011,03,28,01,58,3.10
2011,03,28,01,59,3.10
2011,03,28,02,00,3.10
2011,03,28,02,01,3.10
2011,03,28,02,02,3.10
2011,03,28,02,03,3.10
2011,03,28,02,04,3.10
2011,03,28,02,05,3.10
2011,03,28,02,06,3.10
2011,03,28,02,07,3.10
2011,03,28,02,08,3.10
2011,03,28,02,09,3.00
2011,03,28,02,10,2.90
2011,03,28,02,11,2.90
2011,03,28,02,12,2.90
2011,03,28,02,13,2.90
2011,03,28,02,14,2.90
2011,03,28,02,15,2.80
2011,03,28,02,16,2.80
2011,03,28,02,17,2.80
2011,03,28,02,18,2.80
2011,03,28,02,19,2.80
2011,03,28,02,20,2.70
2011,03,28,02,21,2.70
2011,03,28,02,22,2.70
2011,03,28,02,23,2.70
2011,03,28,02,24,2.70
2011,03,28,02,25,2.70
2011,03,28,02,26,2.70
2011,03,28,02,27,2.70
2011,03,28,02,28,2.70
2011,03,28,02,29,2.60
2011,03,28,02,30,2.60
2011,03,28,02,31,2.60
2011,03,28,02,32,2.60
2011,03,28,02,33,2.60
2011,03,28,02,34,2.60
2011,03,28,02,35,2.60
2011,03,28,02,36,2.60
2011,03,28,02,37,2.60
2011,03,28,02,38,2.60
2011,03,28,02,39,2.70
2011,03,28,02,40,2.70
2011,03,28,02,41,2.70
2011,03,28,02,42,2.70
2011,03,28,02,43,2.70
2011,03,28,02,44,2.70
2011,03,28,02,45,2.60
2011,03,28,02,46,2.60
2011,03,28,02,47,2.50
2011,03,28,02,48,2.50
2011,03,28,02,49,2.50
2011,03,28,02,50,2.40
2011,03,28,02,51,2.40
2011,03,28,02,52,2.40
2011,03,28,02,53,2.40
2011,03,28,02,54,2.50
2011,03,28,02,55,2.50
2011,03,28,02,56,2.50
2011,03,28,02,57,2.50
2011,03,28,02,58,2.50
2011,03,28,02,59,2.50
2011,03,28,03,00,2.50
2011,03,28,03,01,2.50
2011,03,28,03,02,2.50
2011,03,28,03,03,2.50
2011,03,28,03,04,2.40
2011,03,28,03,05,2.50
2011,03,28,03,06,2.50
2011,03,28,03,07,2.40
2011,03,28,03,08,2.40
2011,03,28,03,09,2.40
2011,03,28,03,10,2.40
2011,03,28,03,11,2.40
2011,03,28,03,12,2.30
2011,03,28,03,13,2.30
2011,03,28,03,14,2.30
2011,03,28,03,15,2.30
2011,03,28,03,16,2.20
2011,03,28,03,17,2.20
2011,03,28,03,18,2.20
2011,03,28,03,19,2.20
2011,03,28,03,20,2.20
2011,03,28,03,21,2.20
2011,03,28,03,22,2.20
2011,03,28,03,23,2.20
2011,03,28,03,24,2.20
2011,03,28,03,25,2.20
2011,03,28,03,26,2.20
2011,03,28,03,27,2.20
2011,03,28,03,28,2.20
2011,03,28,03,29,2.20
2011,03,28,03,30,2.20
2011,03,28,03,31,2.20
2011,03,28,03,32,2.20
2011,03,28,03,33,2.20
2011,03,28,03,34,2.20
2011,03,28,03,35,2.20
2011,03,28,03,36,2.20
2011,03,28,03,37,2.20
2011,03,28,03,38,2.20
2011,03,28,03,39,2.20
2011,03,28,03,40,2.10
2011,03,28,03,41,2.10
2011,03,28,03,42,2.00
2011,03,28,03,43,1.90
2011,03,28,03,44,1.90
2011,03,28,03,45,1.80
2011,03,28,03,46,1.80
2011,03,28,03,47,1.80
2011,03,28,03,48,1.80
2011,03,28,03,49,1.70
2011,03,28,03,50,1.70
2011,03,28,03,51,1.60
2011,03,28,03,52,1.60
2011,03,28,03,53,1.60
2011,03,28,03,54,1.60
2011,03,28,03,55,1.50
2011,03,28,03,56,1.50
2011,03,28,03,57,1.50
2011,03,28,03,58,1.60
2011,03,28,03,59,1.60
2011,03,28,04,00,1.60
2011,03,28,04,01,1.60
2011,03,28,04,02,1.60
2011,03,28,04,03,1.50
2011,03,28,04,04,1.50
2011,03,28,04,05,1.50
2011,03,28,04,06,1.50
2011,03,28,04,07,1.50
2011,03,28,04,08,1.50
2011,03,28,04,09,1.50
2011,03,28,04,10,1.50
2011,03,28,04,11,1.60
2011,03,28,04,12,1.60
2011,03,28,04,13,1.60
2011,03,28,04,14,1.60
2011,03,28,04,15,1.60
2011,03,28,04,16,1.60
2011,03,28,04,17,1.60
2011,03,28,04,18,1.60
2011,03,28,04,19,1.50
2011,03,28,04,20,1.50
2011,03,28,04,21,1.50
2011,03,28,04,22,1.40
2011,03,28,04,23,1.40
2011,03,28,04,24,1.50
2011,03,28,04,25,1.50
2011,03,28,04,26,1.50
2011,03,28,04,27,1.50
2011,03,28,04,28,1.50
2011,03,28,04,29,1.50
2011,03,28,04,30,1.50
2011,03,28,04,31,1.50
2011,03,28,04,32,1.50
2011,03,28,04,33,1.60
2011,03,28,04,34,1.60
2011,03,28,04,35,1.60
2011,03,28,04,36,1.60
2011,03,28,04,37,1.60
2011,03,28,04,38,1.60
2011,03,28,04,39,1.60
2011,03,28,04,40,1.60
2011,03,28,04,41,1.60
2011,03,28,04,42,1.70
2011,03,28,04,43,1.70
2011,03,28,04,44,1.70
2011,03,28,04,45,1.70
2011,03,28,04,46,1.70
2011,03,28,04,47,1.70
2011,03,28,04,48,1.70
2011,03,28,04,49,1.70
2011,03,28,04,50,1.70
2011,03,28,04,51,1.60
2011,03,28,04,52,1.60
2011,03,28,04,53,1.60
2011,03,28,04,54,1.60
2011,03,28,04,55,1.60
2011,03,28,04,56,1.70
2011,03,28,04,57,1.70
2011,03,28,04,58,1.80
2011,03,28,04,59,1.80
2011,03,28,05,00,1.80
2011,03,28,05,01,1.80
2011,03,28,05,02,1.80
2011,03,28,05,03,1.80
2011,03,28,05,04,1.80
2011,03,28,05,05,1.80
2011,03,28,05,06,1.80
2011,03,28,05,07,1.80
2011,03,28,05,08,1.80
2011,03,28,05,09,1.70
2011,03,28,05,10,1.70
2011,03,28,05,11,1.70
2011,03,28,05,12,1.70
2011,03,28,05,13,1.60
2011,03,28,05,14,1.60
2011,03,28,05,15,1.60
2011,03,28,05,16,1.60
2011,03,28,05,17,1.60
2011,03,28,05,18,1.60
2011,03,28,05,19,1.60
2011,03,28,05,20,1.60
2011,03,28,05,21,1.60
2011,03,28,05,22,1.60
2011,03,28,05,23,1.60
2011,03,28,05,24,1.60
2011,03,28,05,25,1.50
2011,03,28,05,26,1.50
2011,03,28,05,27,1.50
2011,03,28,05,28,1.50
2011,03,28,05,29,1.50
2011,03,28,05,30,1.50
2011,03,28,05,31,1.60
2011,03,28,05,32,1.60
2011,03,28,05,33,1.60
2011,03,28,05,34,1.70
2011,03,28,05,35,1.80
2011,03,28,05,36,1.80
2011,03,28,05,37,1.90
2011,03,28,05,38,2.00
2011,03,28,05,39,2.00
2011,03,28,05,40,2.10
2011,03,28,05,41,2.10
2011,03,28,05,42,2.10
2011,03,28,05,43,2.10
2011,03,28,05,44,2.00
2011,03,28,05,45,2.00
2011,03,28,05,46,2.00
2011,03,28,05,47,2.00
2011,03,28,05,48,2.00
2011,03,28,05,49,2.00
2011,03,28,05,50,2.10
2011,03,28,05,51,2.10
2011,03,28,05,52,2.20
2011,03,28,05,53,2.20
2011,03,28,05,54,2.20
2011,03,28,05,55,2.20
2011,03,28,05,56,2.30
2011,03,28,05,57,2.30
2011,03,28,05,58,2.30
2011,03,28,05,59,2.20
2011,03,28,06,00,2.20
2011,03,28,06,01,2.20
2011,03,28,06,02,2.20
2011,03,28,06,03,2.20
2011,03,28,06,04,2.20
2011,03,28,06,05,2.20
2011,03,28,06,06,2.20
2011,03,28,06,07,2.20
2011,03,28,06,08,2.10
2011,03,28,06,09,2.00
2011,03,28,06,10,1.90
2011,03,28,06,11,1.80
2011,03,28,06,12,1.80
2011,03,28,06,13,1.80
2011,03,28,06,14,1.70
2011,03,28,06,15,1.70
2011,03,28,06,16,1.80
2011,03,28,06,17,1.80
2011,03,28,06,18,1.70
2011,03,28,06,19,1.70
2011,03,28,06,20,1.70
2011,03,28,06,21,1.80
2011,03,28,06,22,1.80
2011,03,28,06,23,1.80
2011,03,28,06,24,1.80
2011,03,28,06,25,1.80
2011,03,28,06,26,1.80
2011,03,28,06,27,1.80
2011,03,28,06,28,1.80
2011,03,28,06,29,1.80
2011,03,28,06,30,1.80
2011,03,28,06,31,1.80
2011,03,28,06,32,1.80
2011,03,28,06,33,1.80
2011,03,28,06,34,1.70
2011,03,28,06,35,1.70
2011,03,28,06,36,1.70
2011,03,28,06,37,1.70
2011,03,28,06,38,1.70
2011,03,28,06,39,1.70
2011,03,28,06,40,1.70
2011,03,28,06,41,1.70
2011,03,28,06,42,1.70
2011,03,28,06,43,1.70
2011,03,28,06,44,1.70
2011,03,28,06,45,1.70
2011,03,28,06,46,1.80
2011,03,28,06,47,1.80
2011,03,28,06,48,1.80
2011,03,28,06,49,1.90
2011,03,28,06,50,1.90
2011,03,28,06,51,2.00
2011,03,28,06,52,2.00
2011,03,28,06,53,2.10
2011,03,28,06,54,2.10
2011,03,28,06,55,2.10
2011,03,28,06,56,2.10
2011,03,28,06,57,2.10
2011,03,28,06,58,2.10
2011,03,28,06,59,2.10
2011,03,28,07,00,2.00
2011,03,28,07,01,2.00
2011,03,28,07,02,1.90
2011,03,28,07,03,1.90
2011,03,28,07,04,1.90
2011,03,28,07,05,1.80
2011,03,28,07,06,1.80
2011,03,28,07,07,1.80
2011,03,28,07,08,1.80
2011,03,28,07,09,1.80
2011,03,28,07,10,1.90
2011,03,28,07,11,1.90
2011,03,28,07,12,2.00
2011,03,28,07,13,2.00
2011,03,28,07,14,2.10
2011,03,28,07,15,2.10
2011,03,28,07,16,2.20
2011,03,28,07,17,2.20
2011,03,28,07,18,2.20
2011,03,28,07,19,2.20
2011,03,28,07,20,2.20
2011,03,28,07,21,2.30
2011,03,28,07,22,2.30
2011,03,28,07,23,2.30
2011,03,28,07,24,2.30
2011,03,28,07,25,2.40
2011,03,28,07,26,2.40
2011,03,28,07,27,2.50
2011,03,28,07,28,2.50
2011,03,28,07,29,2.60
2011,03,28,07,30,2.50
2011,03,28,07,31,2.50
2011,03,28,07,32,2.50
2011,03,28,07,33,2.40
2011,03,28,07,34,2.40
2011,03,28,07,35,2.30
2011,03,28,07,36,2.20
2011,03,28,07,37,2.20
2011,03,28,07,38,2.10
2011,03,28,07,39,2.10
2011,03,28,07,40,2.00
2011,03,28,07,41,2.00
2011,03,28,07,42,2.00
2011,03,28,07,43,2.10
2011,03,28,07,44,2.10
2011,03,28,07,45,2.10
2011,03,28,07,46,2.20
2011,03,28,07,47,2.20
2011,03,28,07,48,2.20
2011,03,28,07,49,2.30
2011,03,28,07,50,2.40
2011,03,28,07,51,2.50
2011,03,28,07,52,2.50
2011,03,28,07,53,2.60
2011,03,28,07,54,2.70
2011,03,28,07,55,2.80
2011,03,28,07,56,2.90
2011,03,28,07,57,3.00
2011,03,28,07,58,3.10
2011,03,28,07,59,3.20
2011,03,28,08,00,3.30
2011,03,28,08,01,3.40
2011,03,28,08,02,3.50
2011,03,28,08,03,3.70
2011,03,28,08,04,3.80
2011,03,28,08,05,4.00
2011,03,28,08,06,4.20
2011,03,28,08,07,4.40
2011,03,28,08,08,4.50
2011,03,28,08,09,4.60
2011,03,28,08,10,4.70
2011,03,28,08,11,4.80
2011,03,28,08,12,4.90
2011,03,28,08,13,4.90
2011,03,28,08,14,5.00
2011,03,28,08,15,5.10
2011,03,28,08,16,5.10
2011,03,28,08,17,5.20
2011,03,28,08,18,5.20
2011,03,28,08,19,5.30
2011,03,28,08,20,5.30
2011,03,28,08,21,5.30
2011,03,28,08,22,5.30
2011,03,28,08,23,5.30
2011,03,28,08,24,5.30
2011,03,28,08,25,5.30
2011,03,28,08,26,5.30
2011,03,28,08,27,5.30
2011,03,28,08,28,5.30
2011,03,28,08,29,5.30
2011,03,28,08,30,5.40
2011,03,28,08,31,5.40
2011,03,28,08,32,5.40
2011,03,28,08,33,5.50
2011,03,28,08,34,5.50
2011,03,28,08,35,5.50
2011,03,28,08,36,5.50
2011,03,28,08,37,5.60
2011,03,28,08,38,5.60
2011,03,28,08,39,5.60
2011,03,28,08,40,5.60
2011,03,28,08,41,5.60
2011,03,28,08,42,5.60
2011,03,28,08,43,5.60
2011,03,28,08,44,5.70
2011,03,28,08,45,5.70
2011,03,28,08,46,5.70
2011,03,28,08,47,5.70
2011,03,28,08,48,5.70
2011,03,28,08,49,5.70
2011,03,28,08,50,5.70
2011,03,28,08,51,5.80
2011,03,28,08,52,5.80
2011,03,28,08,53,5.80
2011,03,28,08,54,5.90
2011,03,28,08,55,5.90
2011,03,28,08,56,5.90
2011,03,28,08,57,5.90
2011,03,28,08,58,5.90
2011,03,28,08,59,5.90
2011,03,28,09,00,5.80
2011,03,28,09,01,5.80
2011,03,28,09,02,5.80
2011,03,28,09,03,5.80
2011,03,28,09,04,5.80
2011,03,28,09,05,5.90
2011,03,28,09,06,5.90
2011,03,28,09,07,5.80
2011,03,28,09,08,5.80
2011,03,28,09,09,5.80
2011,03,28,09,10,5.80
2011,03,28,09,11,5.80
2011,03,28,09,12,5.70
2011,03,28,09,13,5.70
2011,03,28,09,14,5.70
2011,03,28,09,15,5.70
2011,03,28,09,16,5.70
2011,03,28,09,17,5.70
2011,03,28,09,18,5.70
2011,03,28,09,19,5.70
2011,03,28,09,20,5.70
2011,03,28,09,21,5.70
2011,03,28,09,22,5.80
2011,03,28,09,23,5.80
2011,03,28,09,24,5.80
2011,03,28,09,25,5.90
2011,03,28,09,26,5.90
2011,03,28,09,27,6.00
2011,03,28,09,28,6.00
2011,03,28,09,29,6.10
2011,03,28,09,30,6.20
2011,03,28,09,31,6.20
2011,03,28,09,32,6.20
2011,03,28,09,33,6.30
2011,03,28,09,34,6.40
2011,03,28,09,35,6.50
2011,03,28,09,36,6.60
2011,03,28,09,37,6.60
2011,03,28,09,38,6.70
2011,03,28,09,39,6.70
2011,03,28,09,40,6.80
2011,03,28,09,41,6.90
2011,03,28,09,42,7.00
2011,03,28,09,43,7.00
2011,03,28,09,44,7.00
2011,03,28,09,45,7.00
2011,03,28,09,46,6.90
2011,03,28,09,47,6.90
2011,03,28,09,48,6.90
2011,03,28,09,49,7.00
2011,03,28,09,50,6.90
2011,03,28,09,51,6.90
2011,03,28,09,52,6.80
2011,03,28,09,53,6.80
2011,03,28,09,54,6.80
2011,03,28,09,55,6.80
2011,03,28,09,56,6.80
2011,03,28,09,57,6.80
2011,03,28,09,58,6.80
2011,03,28,09,59,6.80
2011,03,28,10,00,6.80
2011,03,28,10,01,6.80
2011,03,28,10,02,6.80
2011,03,28,10,03,6.80
2011,03,28,10,04,6.80
2011,03,28,10,05,6.80
2011,03,28,10,06,6.80
2011,03,28,10,07,6.80
2011,03,28,10,08,6.80
2011,03,28,10,09,6.80
2011,03,28,10,10,6.80
2011,03,28,10,11,6.80
2011,03,28,10,12,6.80
2011,03,28,10,13,6.80
2011,03,28,10,14,6.80
2011,03,28,10,15,6.90
2011,03,28,10,16,6.90
2011,03,28,10,17,6.80
2011,03,28,10,18,6.90
2011,03,28,10,19,6.90
2011,03,28,10,20,7.00
2011,03,28,10,21,7.00
2011,03,28,10,22,7.00
2011,03,28,10,23,7.10
2011,03,28,10,24,7.10
2011,03,28,10,25,7.20
2011,03,28,10,26,7.20
2011,03,28,10,27,7.20
2011,03,28,10,28,7.20
2011,03,28,10,29,7.20
2011,03,28,10,30,7.20
2011,03,28,10,31,7.20
2011,03,28,10,32,7.20
2011,03,28,10,33,7.20
2011,03,28,10,34,7.20
2011,03,28,10,35,7.30
2011,03,28,10,36,7.30
2011,03,28,10,37,7.30
2011,03,28,10,38,7.30
2011,03,28,10,39,7.30
2011,03,28,10,40,7.30
2011,03,28,10,41,7.30
2011,03,28,10,42,7.30
2011,03,28,10,43,7.40
2011,03,28,10,44,7.40
2011,03,28,10,45,7.40
2011,03,28,10,46,7.50
2011,03,28,10,47,7.50
2011,03,28,10,48,7.60
2011,03,28,10,49,7.70
2011,03,28,10,50,7.80
2011,03,28,10,51,7.80
2011,03,28,10,52,7.90
2011,03,28,10,53,8.00
2011,03,28,10,54,8.20
2011,03,28,10,55,8.20
2011,03,28,10,56,8.30
2011,03,28,10,57,8.40
2011,03,28,10,58,8.50
2011,03,28,10,59,8.60
2011,03,28,11,00,8.70
2011,03,28,11,01,8.70
2011,03,28,11,02,8.70
2011,03,28,11,03,8.70
2011,03,28,11,04,8.70
2011,03,28,11,05,8.70
2011,03,28,11,06,8.60
2011,03,28,11,07,8.50
2011,03,28,11,08,8.50
2011,03,28,11,09,8.50
2011,03,28,11,10,8.40
2011,03,28,11,11,8.40
2011,03,28,11,12,8.30
2011,03,28,11,13,8.30
2011,03,28,11,14,8.30
2011,03,28,11,15,8.20
2011,03,28,11,16,8.20
2011,03,28,11,17,8.20
2011,03,28,11,18,8.30
2011,03,28,11,19,8.40
2011,03,28,11,20,8.50
2011,03,28,11,21,8.50
2011,03,28,11,22,8.60
2011,03,28,11,23,8.70
2011,03,28,11,24,8.70
2011,03,28,11,25,8.80
2011,03,28,11,26,8.90
2011,03,28,11,27,9.00
2011,03,28,11,28,9.00
2011,03,28,11,29,9.00
2011,03,28,11,30,9.00
2011,03,28,11,31,9.00
2011,03,28,11,32,9.00
2011,03,28,11,33,9.10
2011,03,28,11,34,9.10
2011,03,28,11,35,9.10
2011,03,28,11,36,9.00
2011,03,28,11,37,9.00
2011,03,28,11,38,9.00
2011,03,28,11,39,8.90
2011,03,28,11,40,8.90
2011,03,28,11,41,8.90
2011,03,28,11,42,8.90
2011,03,28,11,43,9.00
2011,03,28,11,44,9.20
2011,03,28,11,45,9.20
2011,03,28,11,46,9.30
2011,03,28,11,47,9.30
2011,03,28,11,48,9.30
2011,03,28,11,49,9.30
2011,03,28,11,50,9.20
2011,03,28,11,51,9.20
2011,03,28,11,52,9.20
2011,03,28,11,53,9.20
2011,03,28,11,54,9.30
2011,03,28,11,55,9.30
2011,03,28,11,56,9.20
2011,03,28,11,57,9.20
2011,03,28,11,58,9.30
2011,03,28,11,59,9.30
2011,03,28,12,00,9.30
2011,03,28,12,01,9.40
2011,03,28,12,02,9.40
2011,03,28,12,03,9.40
2011,03,28,12,04,9.40
2011,03,28,12,05,9.30
2011,03,28,12,06,9.30
2011,03,28,12,07,9.30
2011,03,28,12,08,9.30
2011,03,28,12,09,9.30
2011,03,28,12,10,9.30
2011,03,28,12,11,9.30
2011,03,28,12,12,9.20
2011,03,28,12,13,9.20
2011,03,28,12,14,9.20
2011,03,28,12,15,9.30
2011,03,28,12,16,9.30
2011,03,28,12,17,9.30
2011,03,28,12,18,9.30
2011,03,28,12,19,9.30
2011,03,28,12,20,9.20
2011,03,28,12,21,9.30
2011,03,28,12,22,9.30
2011,03,28,12,23,9.40
2011,03,28,12,24,9.50
2011,03,28,12,25,9.50
2011,03,28,12,26,9.50
2011,03,28,12,27,9.50
2011,03,28,12,28,9.70
2011,03,28,12,29,9.70
2011,03,28,12,30,9.70
2011,03,28,12,31,9.70
2011,03,28,12,32,9.70
2011,03,28,12,33,9.70
2011,03,28,12,34,9.70
2011,03,28,12,35,9.80
2011,03,28,12,36,9.70
2011,03,28,12,37,9.80
2011,03,28,12,38,9.80
2011,03,28,12,39,9.90
2011,03,28,12,40,9.90
2011,03,28,12,41,9.90
2011,03,28,12,42,9.90
2011,03,28,12,43,9.90
2011,03,28,12,44,9.90
2011,03,28,12,45,9.90
2011,03,28,12,46,9.90
2011,03,28,12,47,9.80
2011,03,28,12,48,9.70
2011,03,28,12,49,9.70
2011,03,28,12,50,9.70
2011,03,28,12,51,9.70
2011,03,28,12,52,9.70
2011,03,28,12,53,9.70
2011,03,28,12,54,9.70
2011,03,28,12,55,9.70
2011,03,28,12,56,9.70
2011,03,28,12,57,9.80
2011,03,28,12,58,9.90
2011,03,28,12,59,9.90
2011,03,28,13,00,10.00
2011,03,28,13,01,10.10
2011,03,28,13,02,10.20
2011,03,28,13,03,10.20
2011,03,28,13,04,10.30
2011,03,28,13,05,10.30
2011,03,28,13,06,10.40
2011,03,28,13,07,10.40
2011,03,28,13,08,10.50
2011,03,28,13,09,10.60
2011,03,28,13,10,10.60
2011,03,28,13,11,10.60
2011,03,28,13,12,10.60
2011,03,28,13,13,10.50
2011,03,28,13,14,10.40
2011,03,28,13,15,10.40
2011,03,28,13,16,10.40
2011,03,28,13,17,10.40
2011,03,28,13,18,10.40
2011,03,28,13,19,10.50
2011,03,28,13,20,10.60
2011,03,28,13,21,10.50
2011,03,28,13,22,10.40
2011,03,28,13,23,10.40
2011,03,28,13,24,10.30
2011,03,28,13,25,10.30
2011,03,28,13,26,10.30
2011,03,28,13,27,10.40
2011,03,28,13,28,10.50
2011,03,28,13,29,10.60
2011,03,28,13,30,10.60
2011,03,28,13,31,10.70
2011,03,28,13,32,10.80
2011,03,28,13,33,10.90
2011,03,28,13,34,11.10
2011,03,28,13,35,11.10
2011,03,28,13,36,11.10
2011,03,28,13,37,11.10
2011,03,28,13,38,11.20
2011,03,28,13,39,11.30
2011,03,28,13,40,11.30
2011,03,28,13,41,11.40
2011,03,28,13,42,11.40
2011,03,28,13,43,11.40
2011,03,28,13,44,11.40
2011,03,28,13,45,11.40
2011,03,28,13,46,11.40
2011,03,28,13,47,11.40
2011,03,28,13,48,11.40
2011,03,28,13,49,11.60
2011,03,28,13,50,11.60
2011,03,28,13,51,11.70
2011,03,28,13,52,11.70
2011,03,28,13,53,11.70
2011,03,28,13,54,11.70
2011,03,28,13,55,11.70
2011,03,28,13,56,11.60
2011,03,28,13,57,11.60
2011,03,28,13,58,11.60
2011,03,28,13,59,11.60
2011,03,28,14,00,11.50
2011,03,28,14,01,11.30
2011,03,28,14,02,11.20
2011,03,28,14,03,11.20
2011,03,28,14,04,11.30
2011,03,28,14,05,11.40
2011,03,28,14,06,11.30
2011,03,28,14,07,11.30
2011,03,28,14,08,11.40
2011,03,28,14,09,11.30
2011,03,28,14,10,11.20
2011,03,28,14,11,11.20
2011,03,28,14,12,11.30
2011,03,28,14,13,11.40
2011,03,28,14,14,11.60
2011,03,28,14,15,11.60
2011,03,28,14,16,11.60
2011,03,28,14,17,11.80
2011,03,28,14,18,11.80
2011,03,28,14,19,11.90
2011,03,28,14,20,11.90
2011,03,28,14,21,12.00
2011,03,28,14,22,12.10
2011,03,28,14,23,12.10
2011,03,28,14,24,12.00
2011,03,28,14,25,11.90
2011,03,28,14,26,11.80
2011,03,28,14,27,11.80
2011,03,28,14,28,11.80
2011,03,28,14,29,11.80
2011,03,28,14,30,11.90
2011,03,28,14,31,12.00
2011,03,28,14,32,12.10
2011,03,28,14,33,12.00
2011,03,28,14,34,11.80
2011,03,28,14,35,11.80
2011,03,28,14,36,11.60
2011,03,28,14,37,11.60
2011,03,28,14,38,11.60
2011,03,28,14,39,11.60
2011,03,28,14,40,11.60
2011,03,28,14,41,11.50
2011,03,28,14,42,11.60
2011,03,28,14,43,11.60
2011,03,28,14,44,11.60
2011,03,28,14,45,11.60
2011,03,28,14,46,11.60
2011,03,28,14,47,11.60
2011,03,28,14,48,11.50
2011,03,28,14,49,11.50
2011,03,28,14,50,11.60
2011,03,28,14,51,11.60
2011,03,28,14,52,11.60
2011,03,28,14,53,11.60
2011,03,28,14,54,11.60
2011,03,28,14,55,11.60
2011,03,28,14,56,11.60
2011,03,28,14,57,11.50
2011,03,28,14,58,11.40
2011,03,28,14,59,11.40
2011,03,28,15,00,11.40
2011,03,28,15,01,11.40
2011,03,28,15,02,11.40
2011,03,28,15,03,11.40
2011,03,28,15,04,11.40
2011,03,28,15,05,11.40
2011,03,28,15,06,11.40
2011,03,28,15,07,11.30
2011,03,28,15,08,11.30
2011,03,28,15,09,11.30
2011,03,28,15,10,11.40
2011,03,28,15,11,11.40
2011,03,28,15,12,11.40
2011,03,28,15,13,11.30
2011,03,28,15,14,11.30
2011,03,28,15,15,11.20
2011,03,28,15,16,11.20
2011,03,28,15,17,11.20
2011,03,28,15,18,11.20
2011,03,28,15,19,11.20
2011,03,28,15,20,11.10
2011,03,28,15,21,11.10
2011,03,28,15,22,11.00
2011,03,28,15,23,10.90
2011,03,28,15,24,10.90
2011,03,28,15,25,10.90
2011,03,28,15,26,10.90
2011,03,28,15,27,10.90
2011,03,28,15,28,10.90
2011,03,28,15,29,10.90
2011,03,28,15,30,10.90
2011,03,28,15,31,10.80
2011,03,28,15,32,10.80
2011,03,28,15,33,10.70
2011,03,28,15,34,10.70
2011,03,28,15,35,10.70
2011,03,28,15,36,10.70
2011,03,28,15,37,10.70
2011,03,28,15,38,10.70
2011,03,28,15,39,10.70
2011,03,28,15,40,10.70
2011,03,28,15,41,10.70
2011,03,28,15,42,10.70
2011,03,28,15,43,10.70
2011,03,28,15,44,10.80
2011,03,28,15,45,10.80
2011,03,28,15,46,10.90
2011,03,28,15,47,10.90
2011,03,28,15,48,10.90
2011,03,28,15,49,10.90
2011,03,28,15,50,10.90
2011,03,28,15,51,10.90
2011,03,28,15,52,10.90
2011,03,28,15,53,10.90
2011,03,28,15,54,10.90
2011,03,28,15,55,10.90
2011,03,28,15,56,11.00
2011,03,28,15,57,11.10
2011,03,28,15,58,11.10
2011,03,28,15,59,11.10
2011,03,28,16,00,11.00
2011,03,28,16,01,10.90
2011,03,28,16,02,10.90
2011,03,28,16,03,11.10
2011,03,28,16,04,11.10
2011,03,28,16,05,11.10
2011,03,28,16,06,11.10
2011,03,28,16,07,11.10
2011,03,28,16,08,11.10
2011,03,28,16,09,11.10
2011,03,28,16,10,11.10
2011,03,28,16,11,11.10
2011,03,28,16,12,11.10
2011,03,28,16,13,11.10
2011,03,28,16,14,11.10
2011,03,28,16,15,11.10
2011,03,28,16,16,11.10
2011,03,28,16,17,11.20
2011,03,28,16,18,11.20
2011,03,28,16,19,11.20
2011,03,28,16,20,11.10
2011,03,28,16,21,11.10
2011,03,28,16,22,11.10
2011,03,28,16,23,11.10
2011,03,28,16,24,11.10
2011,03,28,16,25,11.10
2011,03,28,16,26,11.10
2011,03,28,16,27,11.10
2011,03,28,16,28,11.10
2011,03,28,16,29,11.10
2011,03,28,16,30,11.10
2011,03,28,16,31,11.10
2011,03,28,16,32,11.10
2011,03,28,16,33,11.10
2011,03,28,16,34,11.10
2011,03,28,16,35,11.20
2011,03,28,16,36,11.20
2011,03,28,16,37,11.20
2011,03,28,16,38,11.20
2011,03,28,16,39,11.20
2011,03,28,16,40,11.20
2011,03,28,16,41,11.20
2011,03,28,16,42,11.20
2011,03,28,16,43,11.20
2011,03,28,16,44,11.20
2011,03,28,16,45,11.20
2011,03,28,16,46,11.10
2011,03,28,16,47,11.10
2011,03,28,16,48,11.10
2011,03,28,16,49,11.20
2011,03,28,16,50,11.20
2011,03,28,16,51,11.20
2011,03,28,16,52,11.20
2011,03,28,16,53,11.20
2011,03,28,16,54,11.20
2011,03,28,16,55,11.20
2011,03,28,16,56,11.20
2011,03,28,16,57,11.20
2011,03,28,16,58,11.20
2011,03,28,16,59,11.20
2011,03,28,17,00,11.20
2011,03,28,17,01,11.20
2011,03,28,17,02,11.20
2011,03,28,17,03,11.20
2011,03,28,17,04,11.10
2011,03,28,17,05,11.10
2011,03,28,17,06,11.10
2011,03,28,17,07,11.10
2011,03,28,17,08,11.10
2011,03,28,17,09,11.10
2011,03,28,17,10,11.10
2011,03,28,17,11,11.10
2011,03,28,17,12,11.10
2011,03,28,17,13,11.00
2011,03,28,17,14,10.90
2011,03,28,17,15,10.90
2011,03,28,17,16,10.90
2011,03,28,17,17,10.80
2011,03,28,17,18,10.60
2011,03,28,17,19,10.40
2011,03,28,17,20,10.40
2011,03,28,17,21,10.30
2011,03,28,17,22,10.20
2011,03,28,17,23,10.10
2011,03,28,17,24,10.10
2011,03,28,17,25,9.90
2011,03,28,17,26,9.90
2011,03,28,17,27,9.80
2011,03,28,17,28,9.70
2011,03,28,17,29,9.70
2011,03,28,17,30,9.60
2011,03,28,17,31,9.60
2011,03,28,17,32,9.60
2011,03,28,17,33,9.60
2011,03,28,17,34,9.50
2011,03,28,17,35,9.50
2011,03,28,17,36,9.50
2011,03,28,17,37,9.50
2011,03,28,17,38,9.50
2011,03,28,17,39,9.60
2011,03,28,17,40,9.60
2011,03,28,17,41,9.50
2011,03,28,17,42,9.50
2011,03,28,17,43,9.50
2011,03,28,17,44,9.40
2011,03,28,17,45,9.40
2011,03,28,17,46,9.50
2011,03,28,17,47,9.50
2011,03,28,17,48,9.50
2011,03,28,17,49,9.50
2011,03,28,17,50,9.50
2011,03,28,17,51,9.60
2011,03,28,17,52,9.60
2011,03,28,17,53,9.60
2011,03,28,17,54,9.60